SAS944 KORD-EKCH

Flight info

Callsign SAS944
Flight time 7h 32m
Altitude 39000
Route RAYNR DCT BRTMN DCT TAAYZ DCT TVC DCT CANSO DCT PELSI DCT LOPVI DCT MIBNO/M085F390 DCT KETLA DCT 64N050W/M085F410 65N040W 65N030W 64N020W 63N010W DCT VALDI/N0494F410 DCT RASVI DCT TNO
Aircraft A359/H-SDE2E3GHIJ3J4J5LM1ORWXY/LB1D1

Departure

Time 2026-05-06 11:36
Airport Chicago O'Hare International Airport (KORD)

Arrival

Time 2026-05-06 19:08
Airport Copenhagen Kastrup Airport (EKCH)
Time Latitude Longitude Altitude Speed Heading
2026-05-06 11:10 41.97347 -87.88898 665 ft 0 kts
2026-05-06 11:29 41.97342 -87.88898 665 ft 2 kts
2026-05-06 11:29 41.97323 -87.88900 663 ft 3 kts
2026-05-06 11:29 41.97304 -87.88903 664 ft 2 kts
2026-05-06 11:30 41.97288 -87.88905 663 ft 3 kts 22°
2026-05-06 11:30 41.97273 -87.88918 663 ft 3 kts 67°
2026-05-06 11:30 41.97269 -87.88943 664 ft 3 kts 90°
2026-05-06 11:30 41.97270 -87.88965 664 ft 1 kts 89°
2026-05-06 11:31 41.97270 -87.88971 665 ft 0 kts 89°
2026-05-06 11:33 41.97270 -87.88957 664 ft 6 kts 89°
2026-05-06 11:33 41.97270 -87.88861 662 ft 14 kts 90°
2026-05-06 11:33 41.97270 -87.88725 665 ft 11 kts 90°
2026-05-06 11:33 41.97236 -87.88669 665 ft 12 kts 166°
2026-05-06 11:34 41.97198 -87.88593 664 ft 13 kts 100°
2026-05-06 11:34 41.97170 -87.88463 665 ft 15 kts 146°
2026-05-06 11:34 41.97061 -87.88444 665 ft 18 kts 180°
2026-05-06 11:34 41.96933 -87.88468 664 ft 14 kts 212°
2026-05-06 11:35 41.96909 -87.88592 664 ft 22 kts 268°
2026-05-06 11:35 41.96907 -87.89097 667 ft 85 kts 270°
2026-05-06 11:35 41.96906 -87.90136 675 ft 137 kts 270°
2026-05-06 11:35 41.96908 -87.91573 984 ft 154 kts 270°
2026-05-06 11:36 41.97247 -87.92876 1484 ft 156 kts 315°
2026-05-06 11:36 41.98288 -87.93298 1845 ft 170 kts
2026-05-06 11:36 41.99495 -87.92852 2119 ft 191 kts 16°
2026-05-06 11:36 42.00839 -87.92316 2477 ft 210 kts 15°
2026-05-06 11:37 42.02320 -87.91773 2808 ft 232 kts 14°
2026-05-06 11:37 42.03940 -87.91224 3279 ft 246 kts 12°
2026-05-06 11:37 42.05623 -87.90681 3971 ft 251 kts 11°
2026-05-06 11:37 42.07339 -87.90140 4700 ft 255 kts 10°
2026-05-06 11:38 42.09083 -87.89595 5415 ft 260 kts 10°
2026-05-06 11:38 42.10858 -87.89039 6163 ft 264 kts 10°
2026-05-06 11:38 42.12638 -87.88480 6908 ft 268 kts
2026-05-06 11:38 42.14461 -87.87903 7666 ft 271 kts
2026-05-06 11:39 42.16304 -87.87318 8454 ft 274 kts
2026-05-06 11:39 42.18179 -87.86721 9288 ft 278 kts
2026-05-06 11:39 42.20067 -87.86120 10049 ft 282 kts
2026-05-06 11:39 42.22027 -87.85502 10491 ft 298 kts
2026-05-06 11:40 42.24116 -87.84851 10803 ft 318 kts
2026-05-06 11:40 42.26335 -87.84157 11106 ft 337 kts
2026-05-06 11:40 42.28684 -87.83415 11416 ft 355 kts
2026-05-06 11:40 42.31150 -87.82759 11765 ft 367 kts
2026-05-06 11:41 42.33714 -87.82296 12302 ft 376 kts
2026-05-06 11:41 42.36337 -87.81904 12899 ft 382 kts 360°
2026-05-06 11:41 42.39009 -87.81551 13534 ft 389 kts 359°
2026-05-06 11:41 42.41723 -87.81216 14102 ft 395 kts 358°
2026-05-06 11:42 42.44472 -87.80881 14699 ft 399 kts 358°
2026-05-06 11:42 42.47246 -87.80671 15296 ft 398 kts 352°
2026-05-06 11:42 42.50020 -87.80706 15914 ft 400 kts 351°
2026-05-06 11:42 42.52810 -87.80827 16531 ft 403 kts 349°
2026-05-06 11:43 42.55580 -87.80995 17131 ft 406 kts 348°
2026-05-06 11:43 42.58446 -87.81192 17741 ft 409 kts 347°
2026-05-06 11:43 42.61303 -87.81394 18357 ft 413 kts 347°
2026-05-06 11:44 42.67118 -87.81718 19354 ft 427 kts 352°
2026-05-06 11:44 42.70084 -87.81338 19871 ft 442 kts
2026-05-06 11:44 42.73105 -87.80203 20407 ft 459 kts 13°
2026-05-06 11:44 42.75989 -87.78183 20944 ft 476 kts 26°
2026-05-06 11:45 42.78721 -87.75545 21488 ft 484 kts 31°
2026-05-06 11:45 42.81368 -87.72664 22029 ft 490 kts 34°
2026-05-06 11:45 42.83984 -87.69655 22566 ft 494 kts 35°
2026-05-06 11:45 42.86609 -87.66587 23107 ft 498 kts 35°
2026-05-06 11:46 42.89253 -87.63508 23602 ft 503 kts 35°
2026-05-06 11:46 42.91933 -87.60417 24058 ft 506 kts 34°
2026-05-06 11:46 42.94636 -87.57327 24552 ft 508 kts 34°
2026-05-06 11:46 42.97359 -87.54232 25041 ft 511 kts 34°
2026-05-06 11:47 43.00100 -87.51126 25522 ft 514 kts 34°
2026-05-06 11:47 43.02860 -87.48001 26020 ft 516 kts 33°
2026-05-06 11:47 43.05638 -87.44854 26471 ft 519 kts 33°
2026-05-06 11:47 43.08387 -87.41734 26913 ft 522 kts 33°
2026-05-06 11:48 43.11189 -87.38549 27372 ft 525 kts 33°
2026-05-06 11:48 43.14005 -87.35343 27823 ft 528 kts 33°
2026-05-06 11:48 43.16840 -87.32110 28268 ft 531 kts 33°
2026-05-06 11:48 43.19682 -87.28864 28797 ft 533 kts 33°
2026-05-06 11:49 43.22543 -87.25593 29127 ft 538 kts 33°
2026-05-06 11:49 43.25423 -87.22298 29458 ft 542 kts 34°
2026-05-06 11:49 43.28326 -87.18970 29852 ft 544 kts 34°
2026-05-06 11:49 43.31238 -87.15627 30203 ft 547 kts 34°
2026-05-06 11:50 43.34161 -87.12266 30527 ft 549 kts 34°
2026-05-06 11:50 43.37089 -87.08894 30862 ft 551 kts 34°
2026-05-06 11:50 43.39038 -87.06648 31045 ft 552 kts 34°
2026-05-06 11:50 43.42985 -87.02094 31442 ft 555 kts 34°
2026-05-06 11:51 43.44939 -86.99836 31719 ft 554 kts 34°
2026-05-06 11:51 43.47882 -86.96428 32166 ft 552 kts 34°
2026-05-06 11:51 43.50816 -86.93027 32600 ft 549 kts 34°
2026-05-06 11:51 43.53731 -86.89644 33070 ft 547 kts 34°
2026-05-06 11:52 43.56640 -86.86265 33448 ft 546 kts 34°
2026-05-06 11:52 43.59545 -86.82889 33835 ft 546 kts 34°
2026-05-06 11:52 43.62452 -86.79508 34074 ft 547 kts 34°
2026-05-06 11:52 43.65361 -86.76120 34318 ft 547 kts 34°
2026-05-06 11:53 43.68269 -86.72727 34572 ft 547 kts 34°
2026-05-06 11:53 43.71179 -86.69328 34813 ft 548 kts 34°
2026-05-06 11:53 43.74050 -86.65969 35039 ft 548 kts 34°
2026-05-06 11:53 43.76959 -86.62561 35266 ft 548 kts 34°
2026-05-06 11:54 43.79870 -86.59147 35497 ft 549 kts 34°
2026-05-06 11:54 43.82790 -86.55717 35657 ft 550 kts 34°
2026-05-06 11:54 43.85706 -86.52286 35910 ft 550 kts 34°
2026-05-06 11:54 43.88619 -86.48854 36144 ft 550 kts 34°
2026-05-06 11:55 43.91535 -86.45414 36346 ft 550 kts 34°
2026-05-06 11:55 43.94449 -86.41972 36547 ft 551 kts 34°
2026-05-06 11:55 43.97360 -86.38529 36778 ft 551 kts 34°
2026-05-06 11:55 44.00279 -86.35074 36978 ft 551 kts 35°
2026-05-06 11:56 44.03196 -86.31615 37155 ft 551 kts 35°
2026-05-06 11:56 44.06113 -86.28151 37360 ft 551 kts 35°
2026-05-06 11:56 44.09026 -86.24687 37539 ft 551 kts 35°
2026-05-06 11:56 44.11942 -86.21215 37735 ft 551 kts 35°
2026-05-06 11:57 44.14854 -86.17743 37905 ft 551 kts 34°
2026-05-06 11:57 44.17765 -86.14268 38132 ft 551 kts 35°
2026-05-06 11:57 44.20672 -86.10793 38344 ft 550 kts 35°
2026-05-06 11:57 44.23575 -86.07317 38521 ft 550 kts 35°
2026-05-06 11:58 44.26479 -86.03836 38658 ft 550 kts 35°
2026-05-06 11:58 44.29386 -86.00348 38771 ft 551 kts 35°
2026-05-06 11:58 44.32289 -85.96858 38898 ft 551 kts 35°
2026-05-06 11:58 44.35156 -85.93408 38996 ft 552 kts 35°
2026-05-06 11:59 44.40986 -85.86381 38965 ft 553 kts 35°
2026-05-06 11:59 44.46809 -85.79336 38974 ft 553 kts 36°
2026-05-06 12:00 44.52625 -85.72284 38951 ft 553 kts 36°
2026-05-06 12:00 44.58442 -85.65212 38951 ft 553 kts 36°
2026-05-06 12:01 44.64252 -85.58129 38964 ft 553 kts 36°
2026-05-06 12:01 44.70051 -85.51006 38962 ft 554 kts 37°
2026-05-06 12:02 44.75743 -85.43811 38962 ft 554 kts 37°
2026-05-06 12:02 44.81460 -85.36531 38958 ft 554 kts 37°
2026-05-06 12:03 44.87183 -85.29251 38975 ft 554 kts 37°
2026-05-06 12:03 44.92908 -85.21967 38987 ft 554 kts 37°
2026-05-06 12:04 44.98625 -85.14677 38979 ft 554 kts 37°
2026-05-06 12:04 45.04342 -85.07365 38959 ft 554 kts 37°
2026-05-06 12:05 45.10018 -85.00086 38971 ft 554 kts 38°
2026-05-06 12:05 45.15719 -84.92752 38961 ft 553 kts 38°
2026-05-06 12:06 45.21408 -84.85414 38962 ft 553 kts 38°
2026-05-06 12:06 45.27095 -84.78057 38974 ft 553 kts 38°
2026-05-06 12:07 45.32778 -84.70685 38952 ft 553 kts 38°
2026-05-06 12:07 45.38455 -84.63299 38951 ft 553 kts 38°
2026-05-06 12:08 45.44129 -84.55897 38938 ft 553 kts 38°
2026-05-06 12:08 45.49795 -84.48484 38946 ft 552 kts 38°
2026-05-06 12:09 45.55447 -84.41066 38945 ft 552 kts 38°
2026-05-06 12:09 45.61094 -84.33636 38953 ft 552 kts 38°
2026-05-06 12:10 45.66698 -84.26241 38954 ft 552 kts 39°
2026-05-06 12:10 45.72331 -84.18785 38952 ft 551 kts 39°
2026-05-06 12:11 45.77951 -84.11326 38950 ft 551 kts 39°
2026-05-06 12:11 45.83572 -84.03845 38956 ft 551 kts 39°
2026-05-06 12:12 45.89190 -83.96345 38938 ft 551 kts 39°
2026-05-06 12:12 45.94795 -83.88840 38931 ft 551 kts 39°
2026-05-06 12:13 46.00399 -83.81316 38946 ft 551 kts 39°
2026-05-06 12:13 46.05994 -83.73781 38924 ft 550 kts 39°
2026-05-06 12:14 46.11574 -83.66245 38924 ft 550 kts 39°
2026-05-06 12:14 46.17153 -83.58688 38926 ft 550 kts 39°
2026-05-06 12:15 46.22691 -83.51166 38931 ft 549 kts 39°
2026-05-06 12:15 46.28243 -83.43601 38936 ft 548 kts 39°
2026-05-06 12:16 46.33787 -83.36026 38941 ft 548 kts 39°
2026-05-06 12:16 46.39328 -83.28432 38944 ft 548 kts 40°
2026-05-06 12:17 46.44848 -83.20845 38935 ft 547 kts 40°
2026-05-06 12:17 46.50362 -83.13243 38923 ft 547 kts 40°
2026-05-06 12:18 46.55872 -83.05627 38932 ft 547 kts 40°
2026-05-06 12:18 46.61372 -82.98002 38919 ft 546 kts 40°
2026-05-06 12:19 46.66871 -82.90355 38919 ft 547 kts 40°
2026-05-06 12:19 46.72365 -82.82691 38916 ft 547 kts 40°
2026-05-06 12:20 46.77814 -82.75068 38917 ft 546 kts 40°
2026-05-06 12:20 46.83290 -82.67384 38912 ft 546 kts 40°
2026-05-06 12:21 46.88758 -82.59687 38907 ft 546 kts 40°
2026-05-06 12:21 46.94229 -82.51965 38931 ft 546 kts 40°
2026-05-06 12:22 46.99686 -82.44239 38903 ft 545 kts 40°
2026-05-06 12:22 47.05131 -82.36506 38897 ft 545 kts 40°
2026-05-06 12:23 47.10573 -82.28756 38897 ft 545 kts 40°
2026-05-06 12:23 47.16010 -82.20990 38893 ft 544 kts 41°
2026-05-06 12:24 47.21436 -82.13214 38876 ft 544 kts 41°
2026-05-06 12:24 47.26854 -82.05428 38886 ft 545 kts 41°
2026-05-06 12:25 47.32242 -81.97662 38903 ft 545 kts 41°
2026-05-06 12:25 47.37651 -81.89841 38878 ft 544 kts 41°
2026-05-06 12:26 47.43042 -81.82021 38878 ft 543 kts 41°
2026-05-06 12:26 47.48437 -81.74173 38878 ft 543 kts 41°
2026-05-06 12:27 47.53817 -81.66324 38876 ft 543 kts 41°
2026-05-06 12:27 47.59182 -81.58470 38855 ft 542 kts 41°
2026-05-06 12:28 47.64512 -81.50647 38868 ft 543 kts 41°
2026-05-06 12:28 47.69876 -81.42749 38889 ft 543 kts 42°
2026-05-06 12:29 47.75229 -81.34842 38865 ft 542 kts 42°
2026-05-06 12:29 47.80568 -81.26930 38864 ft 542 kts 42°
2026-05-06 12:30 47.85899 -81.19008 38861 ft 542 kts 42°
2026-05-06 12:30 47.91225 -81.11069 38855 ft 541 kts 43°
2026-05-06 12:31 47.96539 -81.03122 38848 ft 541 kts 43°
2026-05-06 12:31 48.01845 -80.95163 38846 ft 540 kts 43°
2026-05-06 12:32 48.07110 -80.87241 38838 ft 540 kts 43°
2026-05-06 12:32 48.12405 -80.79250 38836 ft 540 kts 43°
2026-05-06 12:33 48.17996 -80.71815 38835 ft 536 kts 33°
2026-05-06 12:33 48.24075 -80.65343 38824 ft 535 kts 31°
2026-05-06 12:34 48.30221 -80.59030 38828 ft 535 kts 31°
2026-05-06 12:34 48.36360 -80.52729 38818 ft 534 kts 31°
2026-05-06 12:35 48.42492 -80.46390 38810 ft 535 kts 31°
2026-05-06 12:35 48.48624 -80.40016 38808 ft 536 kts 31°
2026-05-06 12:36 48.54760 -80.33615 38800 ft 536 kts 31°
2026-05-06 12:36 48.60848 -80.27244 38802 ft 536 kts 31°
2026-05-06 12:37 48.66975 -80.20815 38824 ft 536 kts 32°
2026-05-06 12:37 48.73100 -80.14370 38799 ft 535 kts 32°
2026-05-06 12:38 48.79213 -80.07916 38793 ft 535 kts 32°
2026-05-06 12:38 48.85316 -80.01454 38787 ft 535 kts 32°
2026-05-06 12:39 48.91421 -79.94970 38787 ft 535 kts 32°
2026-05-06 12:39 48.97517 -79.88476 38782 ft 535 kts 32°
2026-05-06 12:40 49.03613 -79.81963 38768 ft 535 kts 32°
2026-05-06 12:40 49.09667 -79.75475 38786 ft 536 kts 32°
2026-05-06 12:41 49.15764 -79.68920 38774 ft 535 kts 32°
2026-05-06 12:41 49.21847 -79.62360 38774 ft 535 kts 32°
2026-05-06 12:42 49.27929 -79.55781 38784 ft 535 kts 33°
2026-05-06 12:42 49.34009 -79.49184 38769 ft 534 kts 33°
2026-05-06 12:43 49.40071 -79.42586 38762 ft 534 kts 33°
2026-05-06 12:43 49.46129 -79.35972 38766 ft 534 kts 33°
2026-05-06 12:44 49.52182 -79.29344 38764 ft 533 kts 33°
2026-05-06 12:44 49.58218 -79.22713 38754 ft 533 kts 33°
2026-05-06 12:45 49.63270 -79.17148 38755 ft 533 kts 33°
2026-05-06 12:46 49.72314 -79.07149 38746 ft 534 kts 33°
2026-05-06 12:46 49.78303 -79.00501 38748 ft 534 kts 33°
2026-05-06 12:47 49.84011 -78.94146 38741 ft 534 kts 33°
2026-05-06 12:47 49.90040 -78.87413 38748 ft 534 kts 33°
2026-05-06 12:48 49.96048 -78.80681 38744 ft 532 kts 33°
2026-05-06 12:48 50.02052 -78.73934 38741 ft 532 kts 33°
2026-05-06 12:49 50.08046 -78.67178 38737 ft 532 kts 33°
2026-05-06 12:49 50.14037 -78.60402 38734 ft 531 kts 34°
2026-05-06 12:50 50.20007 -78.53629 38735 ft 530 kts 34°
2026-05-06 12:50 50.25972 -78.46841 38729 ft 530 kts 34°
2026-05-06 12:51 50.31931 -78.40037 38725 ft 530 kts 34°
2026-05-06 12:51 50.37884 -78.33219 38724 ft 531 kts 34°
2026-05-06 12:52 50.43805 -78.26417 38728 ft 531 kts 34°
2026-05-06 12:52 50.49755 -78.19559 38725 ft 531 kts 34°
2026-05-06 12:53 50.55708 -78.12675 38718 ft 531 kts 34°
2026-05-06 12:53 50.61693 -78.05731 38717 ft 531 kts 34°
2026-05-06 12:54 50.67633 -77.98818 38715 ft 531 kts 34°
2026-05-06 12:54 50.73534 -77.91929 38718 ft 530 kts 34°
2026-05-06 12:55 50.79453 -77.84996 38715 ft 529 kts 34°
2026-05-06 12:55 50.85359 -77.78055 38710 ft 529 kts 34°
2026-05-06 12:56 50.91265 -77.71093 38707 ft 529 kts 34°
2026-05-06 12:56 50.97165 -77.64115 38699 ft 528 kts 35°
2026-05-06 12:57 51.03067 -77.57113 38707 ft 529 kts 35°
2026-05-06 12:57 51.08962 -77.50095 38703 ft 529 kts 35°
2026-05-06 12:58 51.14854 -77.43059 38709 ft 529 kts 35°
2026-05-06 12:58 51.20689 -77.36066 38700 ft 527 kts 35°
2026-05-06 12:59 51.26548 -77.29022 38695 ft 527 kts 35°
2026-05-06 12:59 51.32403 -77.21961 38682 ft 527 kts 35°
2026-05-06 13:00 51.38249 -77.14888 38699 ft 526 kts 35°
2026-05-06 13:00 51.44086 -77.07802 38679 ft 526 kts 35°
2026-05-06 13:01 51.49913 -77.00704 38694 ft 526 kts 36°
2026-05-06 13:01 51.55733 -76.93593 38702 ft 526 kts 36°
2026-05-06 13:02 51.61538 -76.86475 38672 ft 524 kts 36°
2026-05-06 13:02 51.67295 -76.79392 38677 ft 525 kts 36°
2026-05-06 13:03 51.73095 -76.72235 38670 ft 525 kts 36°
2026-05-06 13:03 51.78891 -76.65059 38677 ft 525 kts 36°
2026-05-06 13:04 51.84679 -76.57868 38674 ft 524 kts 36°
2026-05-06 13:04 51.90454 -76.50668 38668 ft 524 kts 36°
2026-05-06 13:05 51.96227 -76.43448 38667 ft 524 kts 36°
2026-05-06 13:05 52.01989 -76.36217 38667 ft 523 kts 36°
2026-05-06 13:06 52.07732 -76.28987 38662 ft 522 kts 36°
2026-05-06 13:06 52.13435 -76.21782 38664 ft 522 kts 36°
2026-05-06 13:07 52.19168 -76.14516 38661 ft 522 kts 36°
2026-05-06 13:07 52.24892 -76.07237 38653 ft 521 kts 37°
2026-05-06 13:08 52.30603 -75.99949 38653 ft 522 kts 37°
2026-05-06 13:08 52.36330 -75.92616 38650 ft 523 kts 37°
2026-05-06 13:09 52.42050 -75.85268 38654 ft 523 kts 37°
2026-05-06 13:09 52.47761 -75.77907 38647 ft 522 kts 37°
2026-05-06 13:10 52.53463 -75.70530 38644 ft 522 kts 37°
2026-05-06 13:10 52.59162 -75.63133 38645 ft 522 kts 37°
2026-05-06 13:11 52.64851 -75.55725 38646 ft 522 kts 37°
2026-05-06 13:11 52.70508 -75.48334 38639 ft 522 kts 37°
2026-05-06 13:12 52.76188 -75.40885 38637 ft 522 kts 37°
2026-05-06 13:12 52.81875 -75.33403 38644 ft 522 kts 37°
2026-05-06 13:13 52.87544 -75.25918 38642 ft 521 kts 37°
2026-05-06 13:13 52.93210 -75.18412 38633 ft 521 kts 38°
2026-05-06 13:14 52.98862 -75.10897 38631 ft 522 kts 38°
2026-05-06 13:14 53.04545 -75.03317 38631 ft 523 kts 38°
2026-05-06 13:15 53.10212 -74.95731 38630 ft 523 kts 38°
2026-05-06 13:15 53.15835 -74.88178 38628 ft 523 kts 38°
2026-05-06 13:16 53.21491 -74.80552 38620 ft 523 kts 38°
2026-05-06 13:16 53.27142 -74.72909 38633 ft 523 kts 38°
2026-05-06 13:17 53.32781 -74.65253 38625 ft 522 kts 38°
2026-05-06 13:17 53.38413 -74.57580 38623 ft 522 kts 38°
2026-05-06 13:18 53.44039 -74.49890 38619 ft 522 kts 38°
2026-05-06 13:18 53.49666 -74.42171 38625 ft 522 kts 38°
2026-05-06 13:19 53.55281 -74.34440 38616 ft 522 kts 38°
2026-05-06 13:19 53.60886 -74.26695 38615 ft 522 kts 39°
2026-05-06 13:20 53.66490 -74.18925 38612 ft 522 kts 39°
2026-05-06 13:20 53.72078 -74.11149 38616 ft 523 kts 39°
2026-05-06 13:21 53.77687 -74.03316 38587 ft 523 kts 39°
2026-05-06 13:21 53.83289 -73.95465 38577 ft 523 kts 39°
2026-05-06 13:22 53.88887 -73.87592 38581 ft 523 kts 39°
2026-05-06 13:22 53.94479 -73.79698 38586 ft 523 kts 39°
2026-05-06 13:23 54.00059 -73.71792 38589 ft 523 kts 39°
2026-05-06 13:23 54.05640 -73.63857 38595 ft 522 kts 39°
2026-05-06 13:24 54.11214 -73.55902 38599 ft 522 kts 39°
2026-05-06 13:24 54.16745 -73.47982 38596 ft 522 kts 40°
2026-05-06 13:25 54.22300 -73.39997 38592 ft 522 kts 40°
2026-05-06 13:25 54.27850 -73.31990 38595 ft 522 kts 40°
2026-05-06 13:26 54.33395 -73.23962 38593 ft 522 kts 40°
2026-05-06 13:26 54.38933 -73.15913 38592 ft 522 kts 40°
2026-05-06 13:27 54.44463 -73.07848 38594 ft 521 kts 40°
2026-05-06 13:27 54.49983 -72.99768 38594 ft 521 kts 40°
2026-05-06 13:28 54.55499 -72.91662 38592 ft 521 kts 40°
2026-05-06 13:28 54.61014 -72.83529 38587 ft 521 kts 40°
2026-05-06 13:29 54.66514 -72.75388 38583 ft 521 kts 40°
2026-05-06 13:29 54.72014 -72.67218 38589 ft 521 kts 40°
2026-05-06 13:30 54.77474 -72.59074 38588 ft 521 kts 41°
2026-05-06 13:30 54.82956 -72.50869 38590 ft 521 kts 41°
2026-05-06 13:31 54.88437 -72.42635 38584 ft 521 kts 41°
2026-05-06 13:31 54.93909 -72.34384 38584 ft 521 kts 41°
2026-05-06 13:32 54.99382 -72.26099 38577 ft 521 kts 41°
2026-05-06 13:32 55.04851 -72.17790 38584 ft 522 kts 41°
2026-05-06 13:33 55.10322 -72.09447 38580 ft 522 kts 41°
2026-05-06 13:33 55.15787 -72.01080 38581 ft 522 kts 41°
2026-05-06 13:34 55.21245 -71.92694 38578 ft 522 kts 41°
2026-05-06 13:34 55.25779 -71.85703 38579 ft 522 kts 41°
2026-05-06 13:35 55.31221 -71.77282 38573 ft 521 kts 41°
2026-05-06 13:35 55.36652 -71.68845 38577 ft 521 kts 42°
2026-05-06 13:36 55.42081 -71.60381 38578 ft 521 kts 42°
2026-05-06 13:36 55.47503 -71.51894 38571 ft 522 kts 42°
2026-05-06 13:37 55.52929 -71.43367 38571 ft 522 kts 42°
2026-05-06 13:37 55.58347 -71.34823 38571 ft 522 kts 42°
2026-05-06 13:38 55.63761 -71.26251 38572 ft 522 kts 42°
2026-05-06 13:38 55.69177 -71.17641 38565 ft 523 kts 43°
2026-05-06 13:39 55.74593 -71.09000 38565 ft 524 kts 43°
2026-05-06 13:39 55.80008 -71.00322 38561 ft 524 kts 43°
2026-05-06 13:40 55.85408 -70.91639 38568 ft 524 kts 43°
2026-05-06 13:40 55.90804 -70.82929 38564 ft 524 kts 43°
2026-05-06 13:41 55.96203 -70.74177 38564 ft 525 kts 43°
2026-05-06 13:41 56.01564 -70.65457 38561 ft 524 kts 43°
2026-05-06 13:42 56.06945 -70.56664 38560 ft 524 kts 44°
2026-05-06 13:42 56.12320 -70.47845 38565 ft 524 kts 44°
2026-05-06 13:43 56.17720 -70.38954 38564 ft 524 kts 44°
2026-05-06 13:43 56.23040 -70.30161 38561 ft 523 kts 44°
2026-05-06 13:44 56.28393 -70.21276 38551 ft 523 kts 44°
2026-05-06 13:44 56.33730 -70.12378 38552 ft 523 kts 44°
2026-05-06 13:45 56.39050 -70.03476 38553 ft 522 kts 44°
2026-05-06 13:45 56.47047 -69.90029 38550 ft 524 kts 44°
2026-05-06 13:46 56.52376 -69.81027 38544 ft 524 kts 45°
2026-05-06 13:46 56.57697 -69.71999 38543 ft 523 kts 44°
2026-05-06 13:47 56.62997 -69.62966 38543 ft 522 kts 44°
2026-05-06 13:47 56.68288 -69.53916 38537 ft 523 kts 45°
2026-05-06 13:48 56.73586 -69.44818 38533 ft 523 kts 45°
2026-05-06 13:48 56.78874 -69.35700 38536 ft 523 kts 45°
2026-05-06 13:49 56.84145 -69.26568 38536 ft 522 kts 45°
2026-05-06 13:49 56.89402 -69.17424 38528 ft 521 kts 45°
2026-05-06 13:50 56.94651 -69.08261 38524 ft 522 kts 45°
2026-05-06 13:50 56.99903 -68.99055 38524 ft 522 kts 45°
2026-05-06 13:51 57.05144 -68.89830 38510 ft 522 kts 45°
2026-05-06 13:51 57.10379 -68.80580 38523 ft 522 kts 45°
2026-05-06 13:52 57.15606 -68.71303 38522 ft 522 kts 46°
2026-05-06 13:52 57.20790 -68.62064 38517 ft 522 kts 45°
2026-05-06 13:53 57.25992 -68.52757 38520 ft 520 kts 45°
2026-05-06 13:53 57.31181 -68.43434 38514 ft 520 kts 46°
2026-05-06 13:54 57.36361 -68.34086 38515 ft 520 kts 46°
2026-05-06 13:54 57.41535 -68.24711 38509 ft 520 kts 46°
2026-05-06 13:55 57.46698 -68.15318 38515 ft 520 kts 46°
2026-05-06 13:55 57.51852 -68.05901 38506 ft 519 kts 46°
2026-05-06 13:56 57.56999 -67.96456 38506 ft 519 kts 46°
2026-05-06 13:56 57.62140 -67.86985 38507 ft 519 kts 46°
2026-05-06 13:57 57.67272 -67.77490 38501 ft 519 kts 46°
2026-05-06 13:57 57.72398 -67.67965 38500 ft 520 kts 47°
2026-05-06 13:58 57.77517 -67.58412 38509 ft 520 kts 47°
2026-05-06 13:58 57.82633 -67.48826 38502 ft 520 kts 47°
2026-05-06 13:59 57.87743 -67.39210 38500 ft 520 kts 47°
2026-05-06 13:59 57.92842 -67.29574 38500 ft 520 kts 47°
2026-05-06 14:00 57.97934 -67.19908 38509 ft 520 kts 47°
2026-05-06 14:00 58.03019 -67.10216 38509 ft 520 kts 47°
2026-05-06 14:01 58.08098 -67.00493 38509 ft 520 kts 47°
2026-05-06 14:01 58.12976 -66.90437 38510 ft 518 kts 52°
2026-05-06 14:02 58.17584 -66.79974 38512 ft 518 kts 52°
2026-05-06 14:02 58.22203 -66.69486 38517 ft 518 kts 52°
2026-05-06 14:03 58.26856 -66.59052 38514 ft 518 kts 52°
2026-05-06 14:03 58.31521 -66.48624 38521 ft 518 kts 52°
2026-05-06 14:04 58.36175 -66.38186 38505 ft 517 kts 52°
2026-05-06 14:04 58.40821 -66.27707 38511 ft 517 kts 52°
2026-05-06 14:05 58.45456 -66.17202 38515 ft 518 kts 52°
2026-05-06 14:05 58.50055 -66.06728 38513 ft 518 kts 52°
2026-05-06 14:06 58.54671 -65.96174 38511 ft 517 kts 52°
2026-05-06 14:06 58.59276 -65.85596 38502 ft 517 kts 52°
2026-05-06 14:07 58.63870 -65.74993 38506 ft 517 kts 52°
2026-05-06 14:07 58.68451 -65.64371 38510 ft 517 kts 53°
2026-05-06 14:08 58.73032 -65.53707 38504 ft 516 kts 53°
2026-05-06 14:08 58.77595 -65.43034 38507 ft 516 kts 53°
2026-05-06 14:09 58.82144 -65.32341 38509 ft 516 kts 53°
2026-05-06 14:09 58.86689 -65.21611 38507 ft 516 kts 53°
2026-05-06 14:10 58.91225 -65.10851 38511 ft 517 kts 53°
2026-05-06 14:10 58.95758 -65.00052 38511 ft 516 kts 53°
2026-05-06 14:11 59.00274 -64.89243 38510 ft 515 kts 54°
2026-05-06 14:11 59.04746 -64.78488 38520 ft 515 kts 54°
2026-05-06 14:12 59.09241 -64.67630 38529 ft 516 kts 54°
2026-05-06 14:12 59.13727 -64.56741 38545 ft 515 kts 54°
2026-05-06 14:13 59.18204 -64.45827 38552 ft 516 kts 54°
2026-05-06 14:13 59.22672 -64.34882 38552 ft 515 kts 54°
2026-05-06 14:14 59.27542 -64.24584 38539 ft 520 kts 41°
2026-05-06 14:14 59.33475 -64.16427 38539 ft 522 kts 35°
2026-05-06 14:15 59.39601 -64.08739 38549 ft 522 kts 34°
2026-05-06 14:15 59.45740 -64.01118 38553 ft 522 kts 35°
2026-05-06 14:16 59.51866 -63.93434 38553 ft 522 kts 35°
2026-05-06 14:16 59.57977 -63.85701 38564 ft 522 kts 35°
2026-05-06 14:17 59.64079 -63.77923 38560 ft 522 kts 36°
2026-05-06 14:17 59.70137 -63.70167 38565 ft 522 kts 36°
2026-05-06 14:18 59.76230 -63.62338 38567 ft 522 kts 36°
2026-05-06 14:18 59.82319 -63.54480 38570 ft 522 kts 36°
2026-05-06 14:19 59.88402 -63.46596 38577 ft 522 kts 36°
2026-05-06 14:19 59.94481 -63.38683 38583 ft 522 kts 36°
2026-05-06 14:20 60.00557 -63.30736 38588 ft 522 kts 36°
2026-05-06 14:20 60.06631 -63.22758 38594 ft 522 kts 36°
2026-05-06 14:21 60.12695 -63.14758 38589 ft 522 kts 36°
2026-05-06 14:21 60.18742 -63.06744 38603 ft 521 kts 36°
2026-05-06 14:22 60.24783 -62.98701 38614 ft 521 kts 36°
2026-05-06 14:22 60.29799 -62.91996 38614 ft 521 kts 36°
2026-05-06 14:23 60.36805 -62.82588 38618 ft 520 kts 37°
2026-05-06 14:23 60.42819 -62.74473 38625 ft 519 kts 37°
2026-05-06 14:24 60.47850 -62.67657 38631 ft 519 kts 37°
2026-05-06 14:24 60.53849 -62.59494 38620 ft 519 kts 37°
2026-05-06 14:25 60.59465 -62.50575 38631 ft 514 kts 48°
2026-05-06 14:25 60.64437 -62.40161 38650 ft 512 kts 50°
2026-05-06 14:26 60.69271 -62.29522 38651 ft 511 kts 51°
2026-05-06 14:26 60.74077 -62.18830 38668 ft 511 kts 51°
2026-05-06 14:27 60.78889 -62.08115 38666 ft 511 kts 51°
2026-05-06 14:27 60.83702 -61.97380 38681 ft 511 kts 51°
2026-05-06 14:28 60.88499 -61.86636 38681 ft 510 kts 51°
2026-05-06 14:28 60.93282 -61.75871 38678 ft 510 kts 51°
2026-05-06 14:29 60.98060 -61.65063 38679 ft 510 kts 51°
2026-05-06 14:29 61.02827 -61.54228 38705 ft 510 kts 51°
2026-05-06 14:30 61.07580 -61.43371 38713 ft 509 kts 52°
2026-05-06 14:30 61.12312 -61.32512 38714 ft 508 kts 51°
2026-05-06 14:31 61.17032 -61.21624 38727 ft 508 kts 52°
2026-05-06 14:31 61.21744 -61.10703 38727 ft 508 kts 52°
2026-05-06 14:32 61.26445 -60.99755 38735 ft 507 kts 52°
2026-05-06 14:32 61.31115 -60.88829 38743 ft 504 kts 52°
2026-05-06 14:33 61.35766 -60.77896 38760 ft 504 kts 53°
2026-05-06 14:33 61.40371 -60.67015 38758 ft 504 kts 53°
2026-05-06 14:34 61.45006 -60.56007 38780 ft 504 kts 53°
2026-05-06 14:34 61.49627 -60.44982 38779 ft 504 kts 53°
2026-05-06 14:35 61.54239 -60.33923 38799 ft 504 kts 53°
2026-05-06 14:35 61.58845 -60.22825 38799 ft 504 kts 53°
2026-05-06 14:36 61.63442 -60.11697 38799 ft 504 kts 53°
2026-05-06 14:36 61.68025 -60.00535 38796 ft 504 kts 54°
2026-05-06 14:37 61.72603 -59.89342 38815 ft 505 kts 53°
2026-05-06 14:37 61.77186 -59.78079 38836 ft 505 kts 53°
2026-05-06 14:38 61.81756 -59.66792 38833 ft 505 kts 54°
2026-05-06 14:38 61.86312 -59.55479 38852 ft 505 kts 54°
2026-05-06 14:39 61.90864 -59.44128 38840 ft 505 kts 54°
2026-05-06 14:39 61.95409 -59.32729 38874 ft 506 kts 53°
2026-05-06 14:40 61.99949 -59.21285 38880 ft 506 kts 54°
2026-05-06 14:40 62.04479 -59.09810 38903 ft 506 kts 54°
2026-05-06 14:41 62.09004 -58.98298 38908 ft 506 kts 54°
2026-05-06 14:41 62.13516 -58.86759 38910 ft 504 kts 54°
2026-05-06 14:42 62.17978 -58.75284 38919 ft 500 kts 54°
2026-05-06 14:42 62.22417 -58.63803 38941 ft 500 kts 54°
2026-05-06 14:43 62.26814 -58.52371 38939 ft 500 kts 54°
2026-05-06 14:43 62.31229 -58.40838 38960 ft 500 kts 54°
2026-05-06 14:44 62.35635 -58.29279 38959 ft 499 kts 55°
2026-05-06 14:45 62.42204 -58.11929 38976 ft 498 kts 55°
2026-05-06 14:45 62.46410 -58.00111 38994 ft 493 kts 62°
2026-05-06 14:46 62.49673 -57.87138 38993 ft 490 kts 67°
2026-05-06 14:46 62.52718 -57.73955 39002 ft 489 kts 68°
2026-05-06 14:47 62.55713 -57.60701 39019 ft 490 kts 68°
2026-05-06 14:47 62.58707 -57.47419 39034 ft 490 kts 68°
2026-05-06 14:48 62.61693 -57.34135 39034 ft 490 kts 68°
2026-05-06 14:48 62.64673 -57.20817 39039 ft 490 kts 68°
2026-05-06 14:49 62.67639 -57.07480 39062 ft 490 kts 68°
2026-05-06 14:49 62.70592 -56.94115 39055 ft 489 kts 68°
2026-05-06 14:50 62.73525 -56.80756 39076 ft 488 kts 69°
2026-05-06 14:50 62.76424 -56.67466 39084 ft 488 kts 69°
2026-05-06 14:51 62.79326 -56.54080 39100 ft 488 kts 69°
2026-05-06 14:51 62.82218 -56.40654 39097 ft 488 kts 69°
2026-05-06 14:52 62.85096 -56.27205 39089 ft 488 kts 69°
2026-05-06 14:52 62.87966 -56.13707 39123 ft 490 kts 69°
2026-05-06 14:53 62.90834 -56.00132 39116 ft 491 kts 69°
2026-05-06 14:53 62.93691 -55.86527 39128 ft 491 kts 69°
2026-05-06 14:54 62.96515 -55.72986 39130 ft 491 kts 69°
2026-05-06 14:54 62.99346 -55.59323 39146 ft 491 kts 70°
2026-05-06 14:55 63.02157 -55.45667 39143 ft 487 kts 70°
2026-05-06 14:55 63.04923 -55.32149 39161 ft 481 kts 70°
2026-05-06 14:56 63.07655 -55.18697 39161 ft 481 kts 70°
2026-05-06 14:56 63.10377 -55.05196 39177 ft 481 kts 70°
2026-05-06 14:57 63.13085 -54.91688 39177 ft 481 kts 70°
2026-05-06 14:57 63.15782 -54.78141 39176 ft 481 kts 70°
2026-05-06 14:58 63.18453 -54.64647 39183 ft 475 kts 70°
2026-05-06 14:58 63.21079 -54.51290 39183 ft 472 kts 70°
2026-05-06 14:59 63.23669 -54.38017 39194 ft 472 kts 70°
2026-05-06 14:59 63.26264 -54.24630 39198 ft 472 kts 70°
2026-05-06 15:00 63.28846 -54.11227 39211 ft 472 kts 70°
2026-05-06 15:00 63.31417 -53.97795 39222 ft 472 kts 70°
2026-05-06 15:01 63.33973 -53.84352 39209 ft 472 kts 70°
2026-05-06 15:01 63.36515 -53.70887 39216 ft 472 kts 70°
2026-05-06 15:02 63.39047 -53.57386 39214 ft 472 kts 70°
2026-05-06 15:02 63.41567 -53.43862 39214 ft 472 kts 70°
2026-05-06 15:03 63.44055 -53.30414 39215 ft 472 kts 71°
2026-05-06 15:03 63.46548 -53.16843 39222 ft 471 kts 70°
2026-05-06 15:04 63.49023 -53.03282 39221 ft 470 kts 70°
2026-05-06 15:04 63.51484 -52.89699 39222 ft 471 kts 70°
2026-05-06 15:05 63.53932 -52.76094 39225 ft 471 kts 70°
2026-05-06 15:05 63.56369 -52.62458 39225 ft 471 kts 71°
2026-05-06 15:06 63.58792 -52.48804 39224 ft 471 kts 71°
2026-05-06 15:06 63.61205 -52.35110 39219 ft 471 kts 71°
2026-05-06 15:07 63.63609 -52.21363 39223 ft 472 kts 71°
2026-05-06 15:07 63.65989 -52.07666 39225 ft 473 kts 71°
2026-05-06 15:08 63.68370 -51.93865 39224 ft 473 kts 71°
2026-05-06 15:08 63.70738 -51.80032 39224 ft 473 kts 71°
2026-05-06 15:09 63.73093 -51.66180 39220 ft 473 kts 71°
2026-05-06 15:09 63.75436 -51.52289 39210 ft 474 kts 71°
2026-05-06 15:10 63.77775 -51.38321 39224 ft 476 kts 71°
2026-05-06 15:10 63.80108 -51.24292 39223 ft 476 kts 71°
2026-05-06 15:11 63.82428 -51.10234 39225 ft 476 kts 71°
2026-05-06 15:11 63.84718 -50.96252 39223 ft 476 kts 71°
2026-05-06 15:12 63.87007 -50.82164 39232 ft 476 kts 71°
2026-05-06 15:12 63.89285 -50.68028 39233 ft 478 kts 71°
2026-05-06 15:13 63.91557 -50.53835 39228 ft 478 kts 71°
2026-05-06 15:13 63.93817 -50.39616 39228 ft 478 kts 71°
2026-05-06 15:14 63.96064 -50.25358 39213 ft 478 kts 71°
2026-05-06 15:14 63.97919 -50.13505 39213 ft 478 kts 71°
2026-05-06 15:15 64.00140 -49.99208 39213 ft 479 kts 71°
2026-05-06 15:15 64.02217 -49.84783 39214 ft 479 kts 73°
2026-05-06 15:16 64.04150 -49.70260 39223 ft 478 kts 73°
2026-05-06 15:16 64.06083 -49.55722 39221 ft 478 kts 73°
2026-05-06 15:17 64.08029 -49.41180 39222 ft 478 kts 73°
2026-05-06 15:17 64.09971 -49.26625 39227 ft 478 kts 73°
2026-05-06 15:18 64.11898 -49.12052 39233 ft 479 kts 73°
2026-05-06 15:18 64.13810 -48.97448 39233 ft 479 kts 72°
2026-05-06 15:19 64.15709 -48.82822 39230 ft 479 kts 72°
2026-05-06 15:19 64.17583 -48.68249 39230 ft 479 kts 73°
2026-05-06 15:20 64.19453 -48.53567 39235 ft 480 kts 73°
2026-05-06 15:20 64.21314 -48.38822 39233 ft 482 kts 73°
2026-05-06 15:21 64.23164 -48.24032 39233 ft 482 kts 73°
2026-05-06 15:21 64.25000 -48.09205 39230 ft 481 kts 72°
2026-05-06 15:22 64.26817 -47.94399 39227 ft 481 kts 72°
2026-05-06 15:22 64.28620 -47.79567 39222 ft 481 kts 73°
2026-05-06 15:23 64.30409 -47.64702 39222 ft 481 kts 73°
2026-05-06 15:23 64.32169 -47.49937 39219 ft 481 kts 73°
2026-05-06 15:24 64.33835 -47.35825 39207 ft 481 kts 73°
2026-05-06 15:24 64.35579 -47.20907 39208 ft 480 kts 72°
2026-05-06 15:25 64.37301 -47.06032 39213 ft 480 kts 72°
2026-05-06 15:25 64.39011 -46.91117 39206 ft 480 kts 72°
2026-05-06 15:26 64.40705 -46.76192 39205 ft 480 kts 73°
2026-05-06 15:26 64.42375 -46.61314 39203 ft 481 kts 73°
2026-05-06 15:27 64.44041 -46.46325 39203 ft 481 kts 73°
2026-05-06 15:27 64.45692 -46.31312 39208 ft 481 kts 72°
2026-05-06 15:28 64.47329 -46.16271 39208 ft 481 kts 72°
2026-05-06 15:28 64.48949 -46.01233 39217 ft 481 kts 73°
2026-05-06 15:29 64.50555 -45.86165 39217 ft 481 kts 73°
2026-05-06 15:29 64.52146 -45.71064 39226 ft 481 kts 73°
2026-05-06 15:30 64.53721 -45.55966 39222 ft 481 kts 73°
2026-05-06 15:30 64.55282 -45.40823 39226 ft 482 kts 73°
2026-05-06 15:31 64.56819 -45.25757 39241 ft 483 kts 73°
2026-05-06 15:31 64.58353 -45.10539 39246 ft 483 kts 73°
2026-05-06 15:32 64.60625 -44.87688 39243 ft 483 kts 74°
2026-05-06 15:32 64.62120 -44.72429 39238 ft 483 kts 74°
2026-05-06 15:33 64.63598 -44.57164 39255 ft 483 kts 73°
2026-05-06 15:33 64.65066 -44.41827 39253 ft 484 kts 73°
2026-05-06 15:34 64.66516 -44.26490 39273 ft 484 kts 74°
2026-05-06 15:34 64.67951 -44.11132 39273 ft 484 kts 74°
2026-05-06 15:35 64.69370 -43.95758 39276 ft 484 kts 74°
2026-05-06 15:35 64.70773 -43.80370 39308 ft 484 kts 74°
2026-05-06 15:36 64.72162 -43.64943 39328 ft 485 kts 74°
2026-05-06 15:36 64.73538 -43.49476 39379 ft 486 kts 74°
2026-05-06 15:37 64.74890 -43.34063 39379 ft 486 kts 74°
2026-05-06 15:37 64.76235 -43.18534 39435 ft 486 kts 75°
2026-05-06 15:38 64.77564 -43.02993 39452 ft 486 kts 75°
2026-05-06 15:38 64.78878 -42.87427 39452 ft 486 kts 75°
2026-05-06 15:39 64.80176 -42.71839 39491 ft 488 kts 75°
2026-05-06 15:39 64.81461 -42.56198 39495 ft 489 kts 75°
2026-05-06 15:40 64.82732 -42.40503 39509 ft 490 kts 75°
2026-05-06 15:40 64.83994 -42.24708 39507 ft 493 kts 75°
2026-05-06 15:41 64.85241 -42.08870 39522 ft 493 kts 75°
2026-05-06 15:41 64.86472 -41.92995 39522 ft 493 kts 76°
2026-05-06 15:42 64.87679 -41.77204 39521 ft 495 kts 76°
2026-05-06 15:42 64.88884 -41.61213 39535 ft 497 kts 76°
2026-05-06 15:43 64.90072 -41.45190 39532 ft 497 kts 76°
2026-05-06 15:43 64.91244 -41.29142 39530 ft 497 kts 76°
2026-05-06 15:44 64.92399 -41.13080 39510 ft 497 kts 76°
2026-05-06 15:44 64.93536 -40.97008 39542 ft 497 kts 76°
2026-05-06 15:45 64.94659 -40.80889 39510 ft 500 kts 76°
2026-05-06 15:45 64.95771 -40.64670 39508 ft 501 kts 76°
2026-05-06 15:46 64.96865 -40.48412 39501 ft 501 kts 76°
2026-05-06 15:46 64.97941 -40.32153 39501 ft 501 kts 76°
2026-05-06 15:47 64.99000 -40.15878 39506 ft 501 kts 77°
2026-05-06 15:47 65.00042 -39.99579 39527 ft 501 kts 77°
2026-05-06 15:48 65.00774 -39.83168 39496 ft 503 kts 81°
2026-05-06 15:48 65.01190 -39.66663 39508 ft 503 kts 82°
2026-05-06 15:49 65.01611 -39.50259 39499 ft 503 kts 82°
2026-05-06 15:49 65.02077 -39.33767 39506 ft 502 kts 82°
2026-05-06 15:50 65.02549 -39.17279 39504 ft 502 kts 82°
2026-05-06 15:50 65.02977 -39.01788 39530 ft 502 kts 82°
2026-05-06 15:51 65.03413 -38.85285 39507 ft 501 kts 82°
2026-05-06 15:51 65.03829 -38.68816 39509 ft 501 kts 82°
2026-05-06 15:52 65.04226 -38.52327 39505 ft 501 kts 82°
2026-05-06 15:52 65.04603 -38.35953 39505 ft 501 kts 82°
2026-05-06 15:53 65.04964 -38.19461 39510 ft 502 kts 83°
2026-05-06 15:53 65.05308 -38.02945 39534 ft 502 kts 83°
2026-05-06 15:54 65.05633 -37.86437 39510 ft 502 kts 83°
2026-05-06 15:54 65.05940 -37.69907 39503 ft 503 kts 83°
2026-05-06 15:55 65.06229 -37.53350 39507 ft 503 kts 83°
2026-05-06 15:55 65.06500 -37.36800 39507 ft 503 kts 84°
2026-05-06 15:56 65.06752 -37.20235 39506 ft 503 kts 84°
2026-05-06 15:56 65.06987 -37.03675 39529 ft 503 kts 84°
2026-05-06 15:57 65.07203 -36.87109 39500 ft 503 kts 84°
2026-05-06 15:57 65.07399 -36.70667 39499 ft 503 kts 84°
2026-05-06 15:58 65.07578 -36.54104 39515 ft 503 kts 84°
2026-05-06 15:58 65.07740 -36.37514 39504 ft 504 kts 84°
2026-05-06 15:59 65.07883 -36.20912 39496 ft 504 kts 85°
2026-05-06 15:59 65.08008 -36.04288 39495 ft 504 kts 85°
2026-05-06 16:00 65.08114 -35.87670 39497 ft 504 kts 85°
2026-05-06 16:00 65.08202 -35.71043 39496 ft 504 kts 85°
2026-05-06 16:01 65.08271 -35.54417 39495 ft 504 kts 85°
2026-05-06 16:01 65.08322 -35.37878 39495 ft 504 kts 85°
2026-05-06 16:02 65.08355 -35.21250 39495 ft 505 kts 85°
2026-05-06 16:02 65.08369 -35.04590 39522 ft 505 kts 86°
2026-05-06 16:03 65.08365 -34.87936 39495 ft 505 kts 86°
2026-05-06 16:03 65.08343 -34.71291 39495 ft 505 kts 86°
2026-05-06 16:04 65.08301 -34.54660 39495 ft 505 kts 86°
2026-05-06 16:04 65.08242 -34.38002 39495 ft 505 kts 86°
2026-05-06 16:05 65.08164 -34.21352 39495 ft 505 kts 86°
2026-05-06 16:05 65.08068 -34.04827 39495 ft 505 kts 87°
2026-05-06 16:06 65.07953 -33.88179 39496 ft 505 kts 87°
2026-05-06 16:06 65.07819 -33.71542 39495 ft 505 kts 87°
2026-05-06 16:07 65.07668 -33.54914 39498 ft 505 kts 88°
2026-05-06 16:07 65.07498 -33.38248 39487 ft 506 kts 88°
2026-05-06 16:08 65.07342 -33.24408 39484 ft 506 kts 88°
2026-05-06 16:08 65.07137 -33.07719 39488 ft 506 kts 88°
2026-05-06 16:09 65.06914 -32.91056 39485 ft 505 kts 88°
2026-05-06 16:09 65.06672 -32.74409 39482 ft 505 kts 88°
2026-05-06 16:10 65.06412 -32.57767 39480 ft 505 kts 89°
2026-05-06 16:10 65.06133 -32.41123 39480 ft 506 kts 89°
2026-05-06 16:11 65.05837 -32.24486 39489 ft 506 kts 89°
2026-05-06 16:11 65.05521 -32.07840 39480 ft 506 kts 89°
2026-05-06 16:12 65.05188 -31.91190 39479 ft 506 kts 90°
2026-05-06 16:12 65.04835 -31.74564 39478 ft 505 kts 90°
2026-05-06 16:13 65.04464 -31.57947 39475 ft 505 kts 90°
2026-05-06 16:13 65.04074 -31.41314 39474 ft 505 kts 90°
2026-05-06 16:14 65.03669 -31.24793 39470 ft 506 kts 90°
2026-05-06 16:14 65.03243 -31.08180 39469 ft 506 kts 90°
2026-05-06 16:15 65.02798 -30.91562 39466 ft 505 kts 91°
2026-05-06 16:15 65.02335 -30.74972 39459 ft 505 kts 91°
2026-05-06 16:16 65.01854 -30.58383 39466 ft 505 kts 91°
2026-05-06 16:16 65.01354 -30.41794 39456 ft 506 kts 91°
2026-05-06 16:17 65.00839 -30.25315 39465 ft 506 kts 91°
2026-05-06 16:17 65.00303 -30.08732 39458 ft 506 kts 91°
2026-05-06 16:18 64.99691 -29.92168 39460 ft 506 kts 94°
2026-05-06 16:18 64.98616 -29.75688 39454 ft 507 kts 97°
2026-05-06 16:19 64.97423 -29.59257 39452 ft 508 kts 97°
2026-05-06 16:19 64.96272 -29.42821 39452 ft 507 kts 97°
2026-05-06 16:20 64.95147 -29.26382 39445 ft 507 kts 96°
2026-05-06 16:20 64.94016 -29.09956 39438 ft 507 kts 97°
2026-05-06 16:21 64.92865 -28.93543 39443 ft 508 kts 96°
2026-05-06 16:21 64.91695 -28.77144 39435 ft 507 kts 97°
2026-05-06 16:22 64.90505 -28.60753 39428 ft 507 kts 97°
2026-05-06 16:22 64.89297 -28.44385 39426 ft 508 kts 97°
2026-05-06 16:23 64.88071 -28.28023 39425 ft 507 kts 97°
2026-05-06 16:23 64.86826 -28.11660 39408 ft 508 kts 97°
2026-05-06 16:24 64.85562 -27.95303 39409 ft 509 kts 97°
2026-05-06 16:24 64.84281 -27.78968 39408 ft 507 kts 97°
2026-05-06 16:25 64.82993 -27.62768 39396 ft 507 kts 98°
2026-05-06 16:25 64.81676 -27.46478 39396 ft 508 kts 98°
2026-05-06 16:26 64.80343 -27.30203 39387 ft 507 kts 98°
2026-05-06 16:26 64.78989 -27.13932 39378 ft 507 kts 98°
2026-05-06 16:27 64.77619 -26.97695 39379 ft 508 kts 98°
2026-05-06 16:27 64.76230 -26.81471 39374 ft 507 kts 98°
2026-05-06 16:28 64.74830 -26.65296 39365 ft 506 kts 99°
2026-05-06 16:28 64.73412 -26.49154 39365 ft 506 kts 99°
2026-05-06 16:29 64.71976 -26.33019 39365 ft 506 kts 99°
2026-05-06 16:29 64.70522 -26.16906 39355 ft 506 kts 99°
2026-05-06 16:30 64.69299 -26.03518 39352 ft 507 kts 100°
2026-05-06 16:30 64.67561 -25.84721 39352 ft 506 kts 99°
2026-05-06 16:31 64.66056 -25.68653 39341 ft 506 kts 100°
2026-05-06 16:31 64.64530 -25.52589 39339 ft 507 kts 100°
2026-05-06 16:32 64.62996 -25.36647 39338 ft 507 kts 101°
2026-05-06 16:32 64.61434 -25.20607 39330 ft 507 kts 101°
2026-05-06 16:33 64.59856 -25.04590 39331 ft 507 kts 101°
2026-05-06 16:34 64.57457 -24.80602 39323 ft 507 kts 101°
2026-05-06 16:34 64.55835 -24.64622 39316 ft 507 kts 101°
2026-05-06 16:35 64.54196 -24.48667 39314 ft 508 kts 102°
2026-05-06 16:35 64.52535 -24.32691 39316 ft 509 kts 101°
2026-05-06 16:36 64.50856 -24.16714 39308 ft 509 kts 102°
2026-05-06 16:36 64.49158 -24.00756 39298 ft 510 kts 101°
2026-05-06 16:37 64.47442 -23.84810 39308 ft 509 kts 101°
2026-05-06 16:37 64.45712 -23.68886 39290 ft 510 kts 102°
2026-05-06 16:38 64.43960 -23.52975 39287 ft 510 kts 102°
2026-05-06 16:38 64.42189 -23.37077 39286 ft 509 kts 102°
2026-05-06 16:39 64.40405 -23.21213 39269 ft 510 kts 102°
2026-05-06 16:39 64.38599 -23.05339 39266 ft 511 kts 102°
2026-05-06 16:40 64.36775 -22.89451 39277 ft 511 kts 103°
2026-05-06 16:40 64.34933 -22.73592 39259 ft 512 kts 103°
2026-05-06 16:41 64.33075 -22.57763 39251 ft 511 kts 103°
2026-05-06 16:41 64.31200 -22.41948 39245 ft 511 kts 103°
2026-05-06 16:42 64.29321 -22.26284 39237 ft 511 kts 103°
2026-05-06 16:42 64.27409 -22.10499 39239 ft 511 kts 104°
2026-05-06 16:43 64.25481 -21.94737 39239 ft 512 kts 104°
2026-05-06 16:43 64.23538 -21.79015 39237 ft 510 kts 104°
2026-05-06 16:44 64.21577 -21.63320 39236 ft 511 kts 104°
2026-05-06 16:44 64.19602 -21.47656 39218 ft 511 kts 104°
2026-05-06 16:45 64.17610 -21.32005 39208 ft 511 kts 105°
2026-05-06 16:45 64.15600 -21.16380 39210 ft 511 kts 105°
2026-05-06 16:46 64.13576 -21.00797 39204 ft 510 kts 105°
2026-05-06 16:46 64.11533 -20.85220 39201 ft 511 kts 105°
2026-05-06 16:47 64.09467 -20.69616 39203 ft 514 kts 104°
2026-05-06 16:47 64.07374 -20.53951 39200 ft 515 kts 105°
2026-05-06 16:48 64.05280 -20.38434 39194 ft 515 kts 105°
2026-05-06 16:48 64.03150 -20.22787 39194 ft 515 kts 105°
2026-05-06 16:49 64.01007 -20.07207 39199 ft 516 kts 105°
2026-05-06 16:49 63.99470 -19.91320 39199 ft 512 kts 96°
2026-05-06 16:50 63.98393 -19.75273 39201 ft 512 kts 96°
2026-05-06 16:50 63.97377 -19.59225 39196 ft 513 kts 96°
2026-05-06 16:51 63.96340 -19.43223 39205 ft 510 kts 97°
2026-05-06 16:51 63.95273 -19.27294 39195 ft 509 kts 97°
2026-05-06 16:52 63.94186 -19.11396 39194 ft 509 kts 97°
2026-05-06 16:52 63.93080 -18.95519 39189 ft 509 kts 98°
2026-05-06 16:53 63.91957 -18.79629 39188 ft 509 kts 98°
2026-05-06 16:53 63.90815 -18.63733 39172 ft 509 kts 98°
2026-05-06 16:54 63.89667 -18.47989 39170 ft 509 kts 98°
2026-05-06 16:54 63.88492 -18.32137 39174 ft 509 kts 98°
2026-05-06 16:55 63.87299 -18.16297 39176 ft 509 kts 98°
2026-05-06 16:55 63.86087 -18.00437 39171 ft 511 kts 99°
2026-05-06 16:56 63.85055 -17.87124 39169 ft 513 kts 98°
2026-05-06 16:56 63.83812 -17.71299 39168 ft 513 kts 98°
2026-05-06 16:57 63.82542 -17.55364 39161 ft 514 kts 98°
2026-05-06 16:57 63.81253 -17.39439 39166 ft 514 kts 99°
2026-05-06 16:58 63.79946 -17.23521 39169 ft 516 kts 98°
2026-05-06 16:58 63.78617 -17.07547 39168 ft 516 kts 99°
2026-05-06 16:59 63.77265 -16.91552 39180 ft 518 kts 99°
2026-05-06 16:59 63.75897 -16.75585 39169 ft 518 kts 99°
2026-05-06 17:00 63.74510 -16.59637 39170 ft 517 kts 99°
2026-05-06 17:00 63.73109 -16.43695 39176 ft 517 kts 99°
2026-05-06 17:01 63.71690 -16.27786 39171 ft 519 kts 100°
2026-05-06 17:01 63.70250 -16.11861 39165 ft 518 kts 99°
2026-05-06 17:02 63.68793 -15.95958 39153 ft 517 kts 100°
2026-05-06 17:02 63.67318 -15.80086 39168 ft 518 kts 100°
2026-05-06 17:03 63.65837 -15.64325 39180 ft 518 kts 100°
2026-05-06 17:03 63.64328 -15.48446 39160 ft 517 kts 101°
2026-05-06 17:04 63.62798 -15.32576 39160 ft 518 kts 101°
2026-05-06 17:04 63.61253 -15.16759 39164 ft 518 kts 101°
2026-05-06 17:05 63.59694 -15.00973 39157 ft 517 kts 101°
2026-05-06 17:05 63.58115 -14.85190 39150 ft 518 kts 102°
2026-05-06 17:06 63.56516 -14.69397 39155 ft 520 kts 102°
2026-05-06 17:06 63.54904 -14.53668 39152 ft 519 kts 101°
2026-05-06 17:07 63.53267 -14.37870 39153 ft 519 kts 102°
2026-05-06 17:07 63.51614 -14.22114 39141 ft 521 kts 102°
2026-05-06 17:08 63.49940 -14.06341 39140 ft 520 kts 102°
2026-05-06 17:08 63.48246 -13.90556 39154 ft 520 kts 102°
2026-05-06 17:09 63.46539 -13.74833 39136 ft 522 kts 102°
2026-05-06 17:09 63.44814 -13.59116 39125 ft 520 kts 102°
2026-05-06 17:10 63.43070 -13.43390 39131 ft 521 kts 103°
2026-05-06 17:10 63.41308 -13.27699 39131 ft 523 kts 103°
2026-05-06 17:11 63.39526 -13.11994 39125 ft 521 kts 103°
2026-05-06 17:11 63.37727 -12.96311 39121 ft 520 kts 103°
2026-05-06 17:12 63.35917 -12.80708 39119 ft 521 kts 103°
2026-05-06 17:12 63.34088 -12.65102 39117 ft 520 kts 103°
2026-05-06 17:13 63.32243 -12.49527 39115 ft 520 kts 104°
2026-05-06 17:13 63.30380 -12.33962 39111 ft 521 kts 104°
2026-05-06 17:14 63.28515 -12.18529 39118 ft 519 kts 104°
2026-05-06 17:14 63.26622 -12.03036 39111 ft 520 kts 104°
2026-05-06 17:15 63.24715 -11.87581 39107 ft 520 kts 104°
2026-05-06 17:15 63.22784 -11.72088 39102 ft 520 kts 105°
2026-05-06 17:16 63.20835 -11.56612 39097 ft 522 kts 105°
2026-05-06 17:16 63.18870 -11.41164 39109 ft 522 kts 105°
2026-05-06 17:17 63.16885 -11.25711 39092 ft 521 kts 105°
2026-05-06 17:17 63.14886 -11.10298 39090 ft 522 kts 105°
2026-05-06 17:18 63.12870 -10.94903 39090 ft 521 kts 105°
2026-05-06 17:18 63.10837 -10.79532 39091 ft 521 kts 105°
2026-05-06 17:19 63.08790 -10.64192 39085 ft 522 kts 106°
2026-05-06 17:19 63.06725 -10.48874 39085 ft 520 kts 106°
2026-05-06 17:20 63.04657 -10.33665 39077 ft 521 kts 107°
2026-05-06 17:20 63.02558 -10.18370 39080 ft 522 kts 107°
2026-05-06 17:21 63.00440 -10.03090 39073 ft 521 kts 107°
2026-05-06 17:21 62.98337 -9.87808 39072 ft 522 kts 106°
2026-05-06 17:22 62.96280 -9.72516 39079 ft 521 kts 106°
2026-05-06 17:22 62.94206 -9.57228 39073 ft 521 kts 106°
2026-05-06 17:23 62.92108 -9.41987 39070 ft 522 kts 107°
2026-05-06 17:23 62.89989 -9.26766 39067 ft 521 kts 107°
2026-05-06 17:24 62.87957 -9.12310 39069 ft 522 kts 107°
2026-05-06 17:24 62.85807 -8.97148 39070 ft 522 kts 107°
2026-05-06 17:25 62.83640 -8.81992 39054 ft 521 kts 107°
2026-05-06 17:25 62.81455 -8.66857 39061 ft 522 kts 108°
2026-05-06 17:26 62.79269 -8.51844 39059 ft 521 kts 108°
2026-05-06 17:26 62.77053 -8.36763 39061 ft 521 kts 108°
2026-05-06 17:27 62.74823 -8.21716 39054 ft 522 kts 108°
2026-05-06 17:27 62.72573 -8.06664 39052 ft 521 kts 108°
2026-05-06 17:28 62.70322 -7.91732 39050 ft 522 kts 108°
2026-05-06 17:28 62.68044 -7.76753 39048 ft 521 kts 108°
2026-05-06 17:29 62.65749 -7.61790 39043 ft 521 kts 108°
2026-05-06 17:29 62.63437 -7.46844 39043 ft 522 kts 109°
2026-05-06 17:30 62.61108 -7.31916 39039 ft 521 kts 109°
2026-05-06 17:30 62.58769 -7.17045 39043 ft 520 kts 109°
2026-05-06 17:31 62.56413 -7.02193 39033 ft 520 kts 109°
2026-05-06 17:31 62.54045 -6.87382 39033 ft 520 kts 109°
2026-05-06 17:32 62.51674 -6.72678 39043 ft 520 kts 109°
2026-05-06 17:32 62.49273 -6.57906 39048 ft 520 kts 109°
2026-05-06 17:33 62.46854 -6.43142 39041 ft 521 kts 110°
2026-05-06 17:33 62.44420 -6.28412 39040 ft 521 kts 110°
2026-05-06 17:34 62.41970 -6.13694 39042 ft 521 kts 110°
2026-05-06 17:34 62.39505 -5.99007 39011 ft 521 kts 110°
2026-05-06 17:35 62.37022 -5.84331 39043 ft 522 kts 110°
2026-05-06 17:35 62.34515 -5.69625 39032 ft 522 kts 110°
2026-05-06 17:36 62.30746 -5.47734 39034 ft 522 kts 111°
2026-05-06 17:36 62.28203 -5.33110 39033 ft 522 kts 111°
2026-05-06 17:37 62.25647 -5.18521 39030 ft 522 kts 111°
2026-05-06 17:37 62.23076 -5.03957 39031 ft 522 kts 111°
2026-05-06 17:38 62.20486 -4.89399 39026 ft 522 kts 111°
2026-05-06 17:38 62.17884 -4.74884 39026 ft 522 kts 111°
2026-05-06 17:39 62.15265 -4.60382 39027 ft 522 kts 111°
2026-05-06 17:39 62.12629 -4.45894 39023 ft 523 kts 112°
2026-05-06 17:40 62.09975 -4.31416 39028 ft 524 kts 112°
2026-05-06 17:40 62.07304 -4.16951 39021 ft 524 kts 112°
2026-05-06 17:41 62.04635 -4.02608 39020 ft 523 kts 112°
2026-05-06 17:41 62.01935 -3.88206 39022 ft 523 kts 112°
2026-05-06 17:42 61.99220 -3.73821 39020 ft 523 kts 112°
2026-05-06 17:42 61.96492 -3.59479 39022 ft 523 kts 112°
2026-05-06 17:43 61.93746 -3.45144 39020 ft 523 kts 112°
2026-05-06 17:43 61.90988 -3.30851 39019 ft 523 kts 113°
2026-05-06 17:44 61.88217 -3.16592 39002 ft 523 kts 113°
2026-05-06 17:44 61.85430 -3.02352 39014 ft 524 kts 113°
2026-05-06 17:45 61.83099 -2.90519 39014 ft 524 kts 113°
2026-05-06 17:45 61.80284 -2.76317 39016 ft 523 kts 114°
2026-05-06 17:46 61.76991 -2.59837 39015 ft 523 kts 114°
2026-05-06 17:46 61.74608 -2.47990 39012 ft 523 kts 114°
2026-05-06 17:47 61.71750 -2.33877 39012 ft 523 kts 114°
2026-05-06 17:47 61.68876 -2.19778 39006 ft 523 kts 114°
2026-05-06 17:48 61.66012 -2.05823 39009 ft 523 kts 114°
2026-05-06 17:48 61.63113 -1.91797 39007 ft 523 kts 114°
2026-05-06 17:49 61.60200 -1.77801 39007 ft 523 kts 115°
2026-05-06 17:49 61.57269 -1.63810 39007 ft 523 kts 115°
2026-05-06 17:50 61.54328 -1.49866 39007 ft 523 kts 115°
2026-05-06 17:50 61.51371 -1.35943 39008 ft 523 kts 115°
2026-05-06 17:51 61.48419 -1.22133 39007 ft 522 kts 115°
2026-05-06 17:51 61.45442 -1.08299 39006 ft 522 kts 115°
2026-05-06 17:52 61.42440 -0.94438 39007 ft 522 kts 115°
2026-05-06 17:52 61.39431 -0.80640 39004 ft 522 kts 116°
2026-05-06 17:53 61.36407 -0.66861 39004 ft 522 kts 116°
2026-05-06 17:53 61.33390 -0.53204 38988 ft 522 kts 116°
2026-05-06 17:54 61.30318 -0.39389 39006 ft 523 kts 116°
2026-05-06 17:54 61.27266 -0.25753 39007 ft 523 kts 116°
2026-05-06 17:55 61.24188 -0.12086 39006 ft 523 kts 116°
2026-05-06 17:55 61.20747 0.01184 38997 ft 520 kts 128°
2026-05-06 17:56 61.16269 0.12930 39007 ft 519 kts 132°
2026-05-06 17:56 61.11593 0.24322 39012 ft 519 kts 133°
2026-05-06 17:57 61.06887 0.35641 39012 ft 519 kts 133°
2026-05-06 17:57 61.02146 0.46882 38988 ft 517 kts 139°
2026-05-06 17:58 60.97088 0.57416 39016 ft 520 kts 131°
2026-05-06 17:58 60.92606 0.69066 39014 ft 521 kts 130°
2026-05-06 17:59 60.87986 0.80648 39010 ft 521 kts 133°
2026-05-06 17:59 60.83311 0.91868 39015 ft 521 kts 133°
2026-05-06 18:00 60.78606 1.03143 39021 ft 521 kts 133°
2026-05-06 18:00 60.73909 1.14427 38999 ft 521 kts 133°
2026-05-06 18:01 60.69204 1.25707 39020 ft 521 kts 133°
2026-05-06 18:01 60.64499 1.36932 39020 ft 521 kts 133°
2026-05-06 18:02 60.59779 1.48137 39026 ft 520 kts 133°
2026-05-06 18:02 60.55056 1.59294 39026 ft 520 kts 133°
2026-05-06 18:03 60.50329 1.70406 39029 ft 520 kts 133°
2026-05-06 18:03 60.45615 1.81435 39029 ft 520 kts 134°
2026-05-06 18:04 60.40872 1.92480 39028 ft 520 kts 134°
2026-05-06 18:04 60.36124 2.03481 39041 ft 519 kts 134°
2026-05-06 18:05 60.31362 2.14459 39040 ft 520 kts 134°
2026-05-06 18:05 60.26587 2.25419 39042 ft 520 kts 134°
2026-05-06 18:06 60.21803 2.36344 39041 ft 520 kts 134°
2026-05-06 18:06 60.17012 2.47234 39038 ft 520 kts 135°
2026-05-06 18:07 60.12209 2.58098 39040 ft 521 kts 135°
2026-05-06 18:07 60.07389 2.68949 39039 ft 521 kts 135°
2026-05-06 18:08 60.02565 2.79759 39045 ft 521 kts 135°
2026-05-06 18:08 59.97763 2.90467 39044 ft 520 kts 135°
2026-05-06 18:09 59.92921 3.01214 39045 ft 520 kts 135°
2026-05-06 18:09 59.88073 3.11925 39048 ft 520 kts 135°
2026-05-06 18:10 59.83484 3.22016 39028 ft 520 kts 135°
2026-05-06 18:10 59.78621 3.32661 39051 ft 519 kts 135°
2026-05-06 18:11 59.73762 3.43249 39048 ft 518 kts 135°
2026-05-06 18:11 59.68900 3.53792 39048 ft 518 kts 136°
2026-05-06 18:12 59.64022 3.64321 39053 ft 518 kts 136°
2026-05-06 18:12 59.59174 3.74738 39053 ft 518 kts 136°
2026-05-06 18:13 59.54283 3.85199 39025 ft 518 kts 136°
2026-05-06 18:13 59.49389 3.95619 39049 ft 517 kts 136°
2026-05-06 18:14 59.44502 4.05977 39055 ft 516 kts 136°
2026-05-06 18:14 59.39609 4.16298 39057 ft 516 kts 136°
2026-05-06 18:15 59.34712 4.26583 39059 ft 516 kts 136°
2026-05-06 18:15 59.29802 4.36847 39059 ft 516 kts 136°
2026-05-06 18:16 59.24924 4.46999 39060 ft 516 kts 136°
2026-05-06 18:16 59.20002 4.57196 39059 ft 516 kts 136°
2026-05-06 18:17 59.15074 4.67361 39058 ft 516 kts 136°
2026-05-06 18:17 59.10136 4.77500 39057 ft 516 kts 137°
2026-05-06 18:18 59.05195 4.87600 39056 ft 516 kts 137°
2026-05-06 18:18 59.00243 4.97677 39056 ft 515 kts 137°
2026-05-06 18:19 58.95283 5.07726 39057 ft 516 kts 137°
2026-05-06 18:19 58.90321 5.17735 39046 ft 515 kts 137°
2026-05-06 18:20 58.85381 5.27654 39055 ft 515 kts 137°
2026-05-06 18:20 58.80399 5.37615 39051 ft 515 kts 137°
2026-05-06 18:21 58.75409 5.47547 39053 ft 515 kts 137°
2026-05-06 18:21 58.70412 5.57449 39045 ft 515 kts 137°
2026-05-06 18:22 58.65419 5.67302 39049 ft 515 kts 137°
2026-05-06 18:22 58.60406 5.77150 39042 ft 515 kts 137°
2026-05-06 18:23 58.55388 5.86965 39037 ft 515 kts 138°
2026-05-06 18:23 58.50367 5.96743 39039 ft 515 kts 138°
2026-05-06 18:24 58.45340 6.06490 39039 ft 515 kts 138°
2026-05-06 18:24 58.40334 6.16154 39033 ft 515 kts 138°
2026-05-06 18:25 58.35292 6.25847 39026 ft 515 kts 138°
2026-05-06 18:25 58.30245 6.35507 39011 ft 514 kts 138°
2026-05-06 18:26 58.25191 6.45141 39014 ft 514 kts 138°
2026-05-06 18:26 58.20131 6.54743 39015 ft 514 kts 138°
2026-05-06 18:27 58.15064 6.64318 39015 ft 514 kts 138°
2026-05-06 18:27 58.09999 6.73848 39006 ft 514 kts 139°
2026-05-06 18:28 58.04915 6.83375 39005 ft 513 kts 139°
2026-05-06 18:28 57.99842 6.92840 38984 ft 513 kts 139°
2026-05-06 18:29 57.94770 7.02264 38995 ft 512 kts 139°
2026-05-06 18:29 57.89696 7.11650 38978 ft 512 kts 139°
2026-05-06 18:30 57.84646 7.20955 38982 ft 512 kts 139°
2026-05-06 18:30 57.79552 7.30302 38963 ft 512 kts 139°
2026-05-06 18:31 57.74462 7.39602 38979 ft 511 kts 139°
2026-05-06 18:31 57.69367 7.48874 38972 ft 510 kts 139°
2026-05-06 18:32 57.64272 7.58107 38979 ft 509 kts 140°
2026-05-06 18:32 57.59179 7.67298 38980 ft 509 kts 140°
2026-05-06 18:33 57.54084 7.76455 38982 ft 509 kts 140°
2026-05-06 18:33 57.49017 7.85524 38979 ft 509 kts 140°
2026-05-06 18:34 57.43917 7.94614 38983 ft 508 kts 140°
2026-05-06 18:34 57.38809 8.03684 38971 ft 508 kts 140°
2026-05-06 18:35 57.33705 8.12709 38985 ft 506 kts 140°
2026-05-06 18:35 57.28613 8.21676 38988 ft 506 kts 140°
2026-05-06 18:36 57.23507 8.30633 38990 ft 506 kts 140°
2026-05-06 18:36 57.18400 8.39555 38987 ft 505 kts 140°
2026-05-06 18:37 57.14157 8.46940 38987 ft 505 kts 141°
2026-05-06 18:37 57.08185 8.57295 38970 ft 505 kts 141°
2026-05-06 18:38 57.03101 8.66070 38987 ft 504 kts 141°
2026-05-06 18:38 56.97995 8.74851 38980 ft 503 kts 141°
2026-05-06 18:39 56.92880 8.83610 38962 ft 503 kts 141°
2026-05-06 18:40 56.86073 8.95217 38973 ft 502 kts 141°
2026-05-06 18:40 56.80957 9.03898 38972 ft 502 kts 141°
2026-05-06 18:41 56.75839 9.12550 38980 ft 501 kts 141°
2026-05-06 18:41 56.70720 9.21170 38972 ft 500 kts 141°
2026-05-06 18:42 56.65603 9.29754 38970 ft 500 kts 141°
2026-05-06 18:42 56.60493 9.38293 38962 ft 499 kts 141°
2026-05-06 18:43 56.55381 9.46802 38958 ft 498 kts 141°
2026-05-06 18:43 56.52208 9.52066 38951 ft 498 kts 141°
2026-05-06 18:44 56.47101 9.60516 38826 ft 496 kts 141°
2026-05-06 18:44 56.44546 9.64729 38578 ft 497 kts 141°
2026-05-06 18:44 56.41993 9.68932 38305 ft 497 kts 142°
2026-05-06 18:44 56.39436 9.73135 38025 ft 497 kts 142°
2026-05-06 18:45 56.36913 9.77274 37605 ft 494 kts 142°
2026-05-06 18:45 56.34376 9.81430 36933 ft 492 kts 142°
2026-05-06 18:45 56.31847 9.85562 36266 ft 490 kts 142°
2026-05-06 18:45 56.29323 9.89679 35562 ft 489 kts 142°
2026-05-06 18:46 56.26801 9.93784 34821 ft 489 kts 142°
2026-05-06 18:46 56.24277 9.97883 34023 ft 490 kts 142°
2026-05-06 18:46 56.21740 10.01997 33086 ft 490 kts 142°
2026-05-06 18:46 56.19215 10.06087 32234 ft 489 kts 143°
2026-05-06 18:47 56.16681 10.10182 31352 ft 489 kts 143°
2026-05-06 18:47 56.14157 10.14252 30441 ft 489 kts 143°
2026-05-06 18:47 56.11625 10.18329 29421 ft 489 kts 143°
2026-05-06 18:47 56.09096 10.22392 28579 ft 486 kts 143°
2026-05-06 18:48 56.06603 10.26395 27942 ft 478 kts 143°
2026-05-06 18:48 56.04143 10.30337 27288 ft 472 kts 142°
2026-05-06 18:48 56.01709 10.34228 26643 ft 466 kts 142°
2026-05-06 18:48 55.99304 10.38067 25987 ft 461 kts 142°
2026-05-06 18:49 55.96916 10.41870 25343 ft 457 kts 142°
2026-05-06 18:49 55.94557 10.45620 24705 ft 453 kts 142°
2026-05-06 18:49 55.92245 10.49426 24210 ft 448 kts 138°
2026-05-06 18:49 55.90300 10.53634 24071 ft 443 kts 130°
2026-05-06 18:50 55.88621 10.58379 24075 ft 465 kts 121°
2026-05-06 18:50 55.87416 10.63795 23853 ft 476 kts 108°
2026-05-06 18:50 55.86956 10.69650 23399 ft 480 kts 95°
2026-05-06 18:50 55.86881 10.75588 22830 ft 479 kts 92°
2026-05-06 18:51 55.86859 10.81498 22282 ft 475 kts 92°
2026-05-06 18:51 55.86837 10.87359 21733 ft 471 kts 92°
2026-05-06 18:51 55.86807 10.93168 21218 ft 467 kts 92°
2026-05-06 18:51 55.86772 10.98925 20711 ft 463 kts 92°
2026-05-06 18:52 55.86732 11.04642 20003 ft 459 kts 92°
2026-05-06 18:52 55.86691 11.10227 19246 ft 448 kts 92°
2026-05-06 18:52 55.86646 11.15750 18565 ft 444 kts 91°
2026-05-06 18:52 55.86599 11.21225 17836 ft 440 kts 91°
2026-05-06 18:53 55.86550 11.26640 17138 ft 434 kts 91°
2026-05-06 18:53 55.86499 11.31984 16468 ft 428 kts 91°
2026-05-06 18:53 55.86447 11.37246 15801 ft 423 kts 91°
2026-05-06 18:53 55.86394 11.42441 15133 ft 417 kts 91°
2026-05-06 18:54 55.86338 11.47581 14476 ft 412 kts 91°
2026-05-06 18:54 55.86281 11.52653 13813 ft 407 kts 91°
2026-05-06 18:54 55.86224 11.57599 13108 ft 402 kts 91°
2026-05-06 18:54 55.86165 11.62538 12435 ft 396 kts 91°
2026-05-06 18:55 55.86105 11.67404 11808 ft 390 kts 91°
2026-05-06 18:55 55.86043 11.72198 11174 ft 384 kts 91°
2026-05-06 18:55 55.85982 11.76852 10968 ft 367 kts 91°
2026-05-06 18:55 55.85922 11.81290 10839 ft 349 kts 91°
2026-05-06 18:56 55.85863 11.85506 10709 ft 332 kts 91°
2026-05-06 18:56 55.85806 11.89520 10577 ft 317 kts 91°
2026-05-06 18:56 55.85749 11.93368 10456 ft 303 kts 91°
2026-05-06 18:56 55.85694 11.97041 10311 ft 290 kts 91°
2026-05-06 18:57 55.85640 12.00579 10188 ft 281 kts 91°
2026-05-06 18:57 55.85587 12.04032 9927 ft 278 kts 90°
2026-05-06 18:57 55.85534 12.07473 9622 ft 286 kts 91°
2026-05-06 18:57 55.85477 12.11039 9382 ft 288 kts 91°
2026-05-06 18:58 55.85419 12.14608 9010 ft 287 kts 90°
2026-05-06 18:58 55.85360 12.18123 8715 ft 281 kts 91°
2026-05-06 18:58 55.85302 12.21551 8392 ft 272 kts 90°
2026-05-06 18:58 55.85245 12.24821 8036 ft 256 kts 91°
2026-05-06 18:59 55.85191 12.27912 7763 ft 245 kts 90°
2026-05-06 18:59 55.85138 12.30944 7602 ft 244 kts 90°
2026-05-06 18:59 55.85085 12.33949 7308 ft 241 kts 91°
2026-05-06 18:59 55.85031 12.36922 7043 ft 240 kts 90°
2026-05-06 19:00 55.84977 12.39869 6790 ft 238 kts 90°
2026-05-06 19:00 55.84922 12.42739 6534 ft 236 kts 90°
2026-05-06 19:00 55.84869 12.45639 6273 ft 234 kts 91°
2026-05-06 19:00 55.84814 12.48528 6012 ft 233 kts 90°
2026-05-06 19:01 55.84759 12.51389 5794 ft 230 kts 90°
2026-05-06 19:01 55.84704 12.54220 5544 ft 228 kts 91°
2026-05-06 19:01 55.84650 12.57041 5294 ft 228 kts 91°
2026-05-06 19:01 55.84594 12.59854 5109 ft 227 kts 91°
2026-05-06 19:02 55.84462 12.62644 4830 ft 227 kts 102°
2026-05-06 19:02 55.83708 12.65073 4585 ft 226 kts 129°
2026-05-06 19:02 55.82629 12.67054 4276 ft 225 kts 135°
2026-05-06 19:02 55.81502 12.68973 3971 ft 224 kts 135°
2026-05-06 19:03 55.80394 12.70845 3638 ft 214 kts 135°
2026-05-06 19:03 55.79340 12.72636 3326 ft 204 kts 135°
2026-05-06 19:03 55.78333 12.74349 3006 ft 196 kts 135°
2026-05-06 19:03 55.77366 12.75988 2682 ft 188 kts 135°
2026-05-06 19:04 55.76448 12.77549 2420 ft 180 kts 135°
2026-05-06 19:04 55.75538 12.79078 2108 ft 179 kts 137°
2026-05-06 19:04 55.74417 12.79886 2019 ft 178 kts 176°
2026-05-06 19:04 55.73189 12.79551 2018 ft 181 kts 192°
2026-05-06 19:05 55.71984 12.78902 2021 ft 181 kts 195°
2026-05-06 19:05 55.70782 12.78221 2021 ft 182 kts 194°
2026-05-06 19:05 55.69574 12.77538 1995 ft 182 kts 194°
2026-05-06 19:05 55.68505 12.76306 1770 ft 187 kts 225°
2026-05-06 19:06 55.67634 12.74630 1428 ft 179 kts 221°
2026-05-06 19:06 55.66758 12.73236 1200 ft 160 kts 217°
2026-05-06 19:06 55.65936 12.72011 975 ft 149 kts 217°
2026-05-06 19:06 55.65182 12.70855 756 ft 138 kts 219°
2026-05-06 19:07 55.64495 12.69761 565 ft 128 kts 217°
2026-05-06 19:07 55.63831 12.68734 405 ft 125 kts 216°
2026-05-06 19:07 55.63169 12.67715 228 ft 126 kts 216°
2026-05-06 19:07 55.62512 12.66701 54 ft 125 kts 217°
2026-05-06 19:08 55.61898 12.65759 31 ft 98 kts 221°
2026-05-06 19:08 55.61528 12.65186 29 ft 46 kts 221°
2026-05-06 19:08 55.61316 12.64817 31 ft 41 kts 236°
2026-05-06 19:08 55.61230 12.64480 30 ft 19 kts 252°
2026-05-06 19:09 55.61191 12.64245 30 ft 21 kts 263°
2026-05-06 19:09 55.61276 12.64121 30 ft 19 kts 15°
2026-05-06 19:09 55.61392 12.64237 30 ft 19 kts 33°
2026-05-06 19:09 55.61467 12.64324 30 ft 13 kts 33°
2026-05-06 19:10 55.61542 12.64412 30 ft 15 kts 33°
2026-05-06 19:10 55.61640 12.64525 30 ft 19 kts 33°
2026-05-06 19:10 55.61764 12.64668 30 ft 24 kts 33°
2026-05-06 19:10 55.61909 12.64834 30 ft 24 kts 32°
2026-05-06 19:11 55.62020 12.64961 30 ft 9 kts 33°
2026-05-06 19:11 55.62089 12.65040 30 ft 13 kts 33°
2026-05-06 19:11 55.62169 12.65133 30 ft 12 kts 33°
2026-05-06 19:11 55.62254 12.65199 30 ft 15 kts
2026-05-06 19:12 55.62343 12.65207 30 ft 9 kts 359°
2026-05-06 19:12 55.62410 12.65202 30 ft 6 kts 349°
2026-05-06 19:12 55.62432 12.65137 30 ft 7 kts 271°
2026-05-06 19:12 55.62432 12.65104 30 ft 2 kts 270°
2026-05-06 19:13 55.62432 12.65068 30 ft 1 kts 269°
2026-05-06 19:13 55.62432 12.65056 30 ft 0 kts 269°